QPF
0.08 0.10 0.07 0.05 0.02 0.00 0.00 0.00 0.01 0.01 0.01 0.02 0.01 0.01 0.01 0.01 0.01 0.02 0.02 0.02 0.01 0.02 0.02 0.03 0.04 0.05 0.06 0.07 0.06 0.04 0.02 0.02 0.02 0.03 0.03 0.05 0.07 0.05 0.05 0.03 0.02 0.01 0.01
0.05 0.06 0.07 0.06 0.04 0.02 0.01 0.00 0.00 0.01 0.01 0.01 0.01 0.01 0.01 0.01 0.02 0.02 0.02 0.02 0.02 0.02 0.02 0.02 0.03 0.05 0.07 0.06 0.04 0.04 0.03 0.01 0.02 0.03 0.03 0.05 0.06 0.05 0.05 0.03 0.03 0.02 0.01
0.03 0.03 0.04 0.05 0.05 0.04 0.03 0.02 0.01 0.01 0.01 0.01 0.01 0.01 0.01 0.01 0.01 0.02 0.02 0.02 0.01 0.01 0.02 0.03 0.03 0.03 0.04 0.04 0.04 0.04 0.03 0.02 0.02 0.03 0.02 0.03 0.03 0.03 0.03 0.04 0.03 0.02 0.01
0.01 0.02 0.02 0.03 0.03 0.03 0.03 0.03 0.03 0.02 0.01 0.01 0.01 0.01 0.00 0.00 0.00 0.01 0.02 0.02 0.02 0.02 0.02 0.02 0.02 0.02 0.03 0.03 0.04 0.05 0.04 0.02 0.02 0.03 0.02 0.01 0.02 0.02 0.02 0.04 0.04 0.02 0.02
0.01 0.01 0.02 0.02 0.03 0.04 0.04 0.04 0.03 0.02 0.02 0.01 0.01 0.01 0.01 0.00 0.00 0.00 0.01 0.01 0.02 0.02 0.02 0.02 0.02 0.02 0.02 0.03 0.04 0.05 0.04 0.03 0.03 0.03 0.02 0.02 0.02 0.02 0.02 0.03 0.04 0.04 0.04
0.01 0.01 0.02 0.02 0.02 0.03 0.03 0.04 0.04 0.02 0.02 0.01 0.01 0.00 0.01 0.01 0.02 0.03 0.02 0.01 0.01 0.02 0.02 0.03 0.02 0.02 0.03 0.03 0.03 0.04 0.04 0.03 0.03 0.04 0.03 0.03 0.02 0.02 0.02 0.03 0.04 0.06 0.08
0.01 0.01 0.01 0.02 0.02 0.02 0.02 0.02 0.02 0.02 0.01 0.01 0.00 0.00 0.00 0.01 0.01 0.03 0.03 0.02 0.01 0.02 0.02 0.03 0.02 0.01 0.02 0.03 0.03 0.03 0.02 0.02 0.03 0.04 0.03 0.02 0.02 0.02 0.02 0.03 0.03 0.04 0.06
0.02 0.01 0.01 0.01 0.01 0.01 0.01 0.01 0.02 0.02 0.02 0.01 0.00 0.00 0.00 0.00 0.01 0.03 0.04 0.03 0.01 0.01 0.01 0.02 0.03 0.02 0.02 0.03 0.04 0.03 0.02 0.01 0.02 0.02 0.02 0.03 0.03 0.03 0.03 0.03 0.04 0.04 0.06
0.02 0.01 0.01 0.01 0.01 0.01 0.01 0.01 0.02 0.02 0.02 0.02 0.01 0.00 0.00 0.00 0.01 0.01 0.02 0.01 0.01 0.01 0.01 0.01 0.01 0.02 0.03 0.04 0.05 0.04 0.03 0.02 0.01 0.02 0.03 0.03 0.03 0.04 0.03 0.03 0.04 0.04 0.06
0.02 0.02 0.01 0.01 0.00 0.00 0.00 0.01 0.02 0.03 0.02 0.02 0.01 0.00 0.00 0.00 0.00 0.01 0.01 0.01 0.01 0.01 0.01 0.00 0.01 0.02 0.03 0.05 0.05 0.04 0.03 0.02 0.02 0.02 0.03 0.02 0.02 0.03 0.04 0.03 0.03 0.04 0.04
0.01 0.02 0.02 0.01 0.00 0.00 0.00 0.00 0.01 0.01 0.02 0.03 0.02 0.01 0.01 0.00 0.00 0.01 0.01 0.01 0.01 0.01 0.01 0.01 0.01 0.01 0.02 0.03 0.04 0.04 0.03 0.02 0.02 0.03 0.03 0.03 0.03 0.03 0.04 0.04 0.04 0.03 0.03
0.01 0.01 0.02 0.01 0.00 0.00 0.00 0.00 0.01 0.01 0.01 0.01 0.02 0.03 0.01 0.01 0.01 0.01 0.01 0.01 0.01 0.01 0.01 0.01 0.01 0.01 0.01 0.02 0.03 0.04 0.03 0.03 0.03 0.03 0.03 0.02 0.02 0.03 0.03 0.04 0.05 0.03 0.03
0.01 0.00 0.01 0.02 0.01 0.00 0.00 0.00 0.01 0.01 0.01 0.01 0.01 0.01 0.01 0.01 0.01 0.01 0.01 0.01 0.01 0.01 0.01 0.02 0.02 0.02 0.02 0.02 0.04 0.04 0.03 0.02 0.02 0.02 0.01 0.01 0.01 0.02 0.03 0.04 0.05 0.04 0.02
0.01 0.01 0.00 0.01 0.01 0.01 0.01 0.00 0.01 0.01 0.01 0.01 0.01 0.01 0.01 0.01 0.01 0.00 0.01 0.01 0.01 0.01 0.01 0.01 0.01 0.01 0.02 0.02 0.03 0.05 0.04 0.03 0.02 0.02 0.02 0.02 0.02 0.03 0.03 0.03 0.04 0.04 0.04
0.02 0.01 0.01 0.01 0.01 0.01 0.01 0.01 0.01 0.01 0.01 0.01 0.01 0.01 0.01 0.01 0.01 0.01 0.00 0.00 0.00 0.00 0.01 0.01 0.01 0.01 0.01 0.01 0.02 0.03 0.04 0.03 0.03 0.03 0.03 0.03 0.03 0.03 0.03 0.04 0.04 0.03 0.04
0.01 0.01 0.01 0.01 0.01 0.01 0.02 0.01 0.01 0.01 0.02 0.02 0.01 0.01 0.02 0.02 0.01 0.01 0.01 0.01 0.01 0.01 0.01 0.00 0.01 0.01 0.01 0.01 0.01 0.03 0.04 0.03 0.02 0.03 0.03 0.04 0.04 0.04 0.04 0.04 0.04 0.03 0.03
0.01 0.01 0.01 0.01 0.01 0.01 0.01 0.02 0.02 0.02 0.01 0.02 0.02 0.01 0.01 0.01 0.01 0.01 0.01 0.01 0.01 0.02 0.01 0.01 0.01 0.01 0.01 0.01 0.01 0.02 0.03 0.03 0.03 0.03 0.03 0.03 0.03 0.04 0.04 0.04 0.04 0.04 0.04
0.01 0.01 0.01 0.01 0.01 0.01 0.01 0.02 0.03 0.03 0.03 0.02 0.03 0.03 0.02 0.01 0.01 0.01 0.01 0.01 0.01 0.01 0.01 0.01 0.01 0.01 0.01 0.02 0.02 0.02 0.03 0.03 0.03 0.02 0.03 0.03 0.03 0.03 0.04 0.04 0.04 0.04 0.03
0.01 0.01 0.01 0.01 0.00 0.01 0.01 0.01 0.02 0.03 0.03 0.03 0.02 0.02 0.03 0.03 0.01 0.01 0.01 0.01 0.01 0.01 0.01 0.01 0.01 0.02 0.02 0.02 0.03 0.03 0.03 0.03 0.03 0.03 0.02 0.03 0.03 0.03 0.04 0.04 0.04 0.03 0.03
0.01 0.01 0.01 0.01 0.00 0.00 0.01 0.01 0.01 0.02 0.02 0.03 0.03 0.02 0.03 0.04 0.04 0.02 0.02 0.01 0.01 0.01 0.01 0.01 0.01 0.01 0.02 0.02 0.03 0.04 0.04 0.04 0.04 0.04 0.04 0.04 0.03 0.04 0.04 0.04 0.05 0.04 0.04
0.01 0.01 0.01 0.00 0.00 0.00 0.00 0.01 0.01 0.01 0.02 0.03 0.03 0.03 0.03 0.03 0.04 0.03 0.03 0.02 0.02 0.02 0.01 0.01 0.01 0.01 0.01 0.02 0.02 0.03 0.04 0.04 0.04 0.04 0.04 0.04 0.04 0.04 0.04 0.05 0.05 0.06 0.05
0.01 0.01 0.01 0.01 0.00 0.01 0.01 0.01 0.01 0.01 0.02 0.03 0.03 0.03 0.02 0.02 0.02 0.03 0.03 0.03 0.03 0.03 0.03 0.02 0.02 0.02 0.02 0.02 0.02 0.02 0.03 0.03 0.03 0.03 0.03 0.03 0.03 0.03 0.03 0.04 0.04 0.05 0.06
0.01 0.01 0.01 0.01 0.01 0.01 0.01 0.01 0.02 0.02 0.02 0.02 0.02 0.03 0.03 0.02 0.02 0.02 0.02 0.03 0.03 0.02 0.02 0.03 0.03 0.03 0.03 0.02 0.02 0.03 0.03 0.04 0.03 0.03 0.04 0.04 0.03 0.03 0.02 0.03 0.03 0.04 0.05
0.01 0.01 0.01 0.01 0.01 0.01 0.01 0.01 0.02 0.03 0.03 0.02 0.02 0.02 0.03 0.03 0.02 0.02 0.03 0.03 0.03 0.02 0.02 0.03 0.03 0.04 0.03 0.03 0.03 0.03 0.03 0.03 0.04 0.03 0.04 0.05 0.05 0.04 0.04 0.03 0.03 0.03 0.03
0.00 0.00 0.00 0.00 0.01 0.01 0.01 0.01 0.01 0.01 0.02 0.03 0.02 0.02 0.02 0.02 0.02 0.02 0.02 0.02 0.02 0.02 0.02 0.02 0.03 0.03 0.03 0.03 0.03 0.03 0.03 0.03 0.03 0.04 0.04 0.04 0.05 0.05 0.05 0.04 0.03 0.03 0.03
0.00 0.00 0.00 0.00 0.00 0.00 0.00 0.00 0.00 0.01 0.01 0.01 0.02 0.02 0.02 0.02 0.02 0.02 0.02 0.02 0.02 0.02 0.02 0.02 0.02 0.02 0.02 0.02 0.02 0.02 0.03 0.03 0.03 0.04 0.04 0.04 0.05 0.06 0.06 0.05 0.05 0.04 0.03
MSLP
1026.57 1026.69 1026.78 1026.81 1026.80 1026.74 1026.66 1026.57 1026.48 1026.40 1026.33 1026.25 1026.13 1025.97 1025.76 1025.50 1025.21 1024.91 1024.64 1024.42 1024.27 1024.18 1024.14 1024.11 1024.05 1023.92 1023.69 1023.33 1022.83 1022.23 1021.54 1020.79 1020.03 1019.27 1018.55 1017.87 1017.23 1016.63 1016.08 1015.58 1015.13 1014.75 1014.45
1027.03 1027.17 1027.28 1027.33 1027.34 1027.31 1027.25 1027.19 1027.13 1027.07 1027.02 1026.95 1026.85 1026.71 1026.51 1026.26 1025.98 1025.69 1025.42 1025.19 1025.02 1024.91 1024.83 1024.76 1024.67 1024.51 1024.26 1023.90 1023.42 1022.84 1022.18 1021.46 1020.70 1019.94 1019.17 1018.41 1017.66 1016.93 1016.23 1015.57 1014.98 1014.47 1014.08
1027.51 1027.67 1027.78 1027.85 1027.88 1027.86 1027.82 1027.78 1027.74 1027.70 1027.66 1027.60 1027.51 1027.38 1027.19 1026.96 1026.70 1026.43 1026.16 1025.93 1025.75 1025.60 1025.49 1025.37 1025.23 1025.04 1024.76 1024.39 1023.92 1023.37 1022.73 1022.04 1021.30 1020.53 1019.73 1018.91 1018.07 1017.23 1016.40 1015.60 1014.86 1014.23 1013.73
1027.94 1028.13 1028.27 1028.35 1028.38 1028.38 1028.36 1028.32 1028.29 1028.27 1028.23 1028.19 1028.11 1027.99 1027.83 1027.62 1027.38 1027.12 1026.87 1026.64 1026.44 1026.27 1026.11 1025.95 1025.76 1025.53 1025.22 1024.84 1024.37 1023.83 1023.22 1022.56 1021.84 1021.08 1020.26 1019.40 1018.50 1017.57 1016.62 1015.71 1014.85 1014.10 1013.50
1028.31 1028.52 1028.68 1028.78 1028.83 1028.84 1028.82 1028.80 1028.78 1028.76 1028.73 1028.70 1028.63 1028.53 1028.38 1028.20 1027.98 1027.75 1027.51 1027.28 1027.07 1026.88 1026.69 1026.48 1026.25 1025.97 1025.64 1025.24 1024.77 1024.24 1023.66 1023.02 1022.33 1021.59 1020.78 1019.90 1018.96 1017.97 1016.96 1015.95 1015.00 1014.15 1013.45
1028.57 1028.82 1029.00 1029.12 1029.18 1029.20 1029.19 1029.18 1029.17 1029.15 1029.14 1029.11 1029.06 1028.97 1028.84 1028.68 1028.49 1028.27 1028.05 1027.83 1027.62 1027.40 1027.18 1026.95 1026.68 1026.37 1026.01 1025.59 1025.13 1024.61 1024.06 1023.45 1022.79 1022.07 1021.28 1020.42 1019.47 1018.47 1017.42 1016.36 1015.34 1014.41 1013.62
1028.71 1028.99 1029.20 1029.34 1029.41 1029.45 1029.45 1029.45 1029.44 1029.44 1029.43 1029.41 1029.37 1029.30 1029.19 1029.04 1028.87 1028.68 1028.47 1028.26 1028.04 1027.82 1027.58 1027.32 1027.03 1026.70 1026.32 1025.90 1025.44 1024.94 1024.41 1023.84 1023.22 1022.54 1021.79 1020.96 1020.04 1019.05 1018.00 1016.93 1015.88 1014.90 1014.03
1028.76 1029.06 1029.29 1029.44 1029.53 1029.57 1029.59 1029.60 1029.60 1029.60 1029.60 1029.59 1029.56 1029.50 1029.40 1029.28 1029.12 1028.94 1028.75 1028.55 1028.34 1028.11 1027.87 1027.60 1027.29 1026.95 1026.57 1026.16 1025.71 1025.24 1024.74 1024.20 1023.63 1023.01 1022.31 1021.53 1020.66 1019.71 1018.70 1017.64 1016.59 1015.58 1014.66
1028.73 1029.05 1029.28 1029.44 1029.54 1029.59 1029.61 1029.63 1029.64 1029.65 1029.66 1029.66 1029.63 1029.58 1029.50 1029.39 1029.25 1029.09 1028.91 1028.72 1028.52 1028.30 1028.06 1027.79 1027.49 1027.16 1026.79 1026.38 1025.96 1025.51 1025.04 1024.55 1024.03 1023.46 1022.83 1022.11 1021.31 1020.43 1019.47 1018.47 1017.44 1016.43 1015.47
1028.66 1028.98 1029.21 1029.36 1029.46 1029.51 1029.54 1029.56 1029.58 1029.60 1029.62 1029.63 1029.62 1029.58 1029.52 1029.42 1029.30 1029.15 1028.99 1028.82 1028.63 1028.42 1028.19 1027.94 1027.65 1027.33 1026.98 1026.59 1026.19 1025.78 1025.35 1024.90 1024.43 1023.92 1023.35 1022.71 1021.99 1021.18 1020.30 1019.35 1018.37 1017.39 1016.43
1028.57 1028.87 1029.08 1029.22 1029.31 1029.36 1029.40 1029.43 1029.46 1029.49 1029.53 1029.55 1029.56 1029.54 1029.49 1029.42 1029.31 1029.19 1029.05 1028.89 1028.71 1028.52 1028.31 1028.07 1027.80 1027.50 1027.17 1026.81 1026.44 1026.06 1025.67 1025.26 1024.84 1024.38 1023.88 1023.31 1022.67 1021.94 1021.14 1020.27 1019.35 1018.41 1017.48
1028.45 1028.72 1028.91 1029.04 1029.11 1029.16 1029.20 1029.24 1029.29 1029.34 1029.40 1029.45 1029.49 1029.49 1029.47 1029.42 1029.34 1029.24 1029.12 1028.98 1028.82 1028.64 1028.45 1028.22 1027.97 1027.69 1027.38 1027.05 1026.71 1026.36 1026.00 1025.64 1025.27 1024.86 1024.42 1023.91 1023.34 1022.69 1021.97 1021.17 1020.32 1019.44 1018.56
1028.28 1028.52 1028.69 1028.80 1028.87 1028.92 1028.97 1029.03 1029.10 1029.19 1029.27 1029.36 1029.43 1029.47 1029.48 1029.46 1029.41 1029.33 1029.23 1029.10 1028.96 1028.80 1028.61 1028.40 1028.16 1027.90 1027.61 1027.31 1027.00 1026.68 1026.36 1026.04 1025.71 1025.35 1024.96 1024.52 1024.01 1023.43 1022.78 1022.05 1021.28 1020.46 1019.62
1028.02 1028.24 1028.39 1028.50 1028.57 1028.64 1028.71 1028.79 1028.90 1029.02 1029.15 1029.27 1029.38 1029.46 1029.51 1029.52 1029.51 1029.45 1029.37 1029.26 1029.13 1028.98 1028.80 1028.60 1028.38 1028.13 1027.86 1027.59 1027.31 1027.03 1026.74 1026.46 1026.17 1025.86 1025.51 1025.12 1024.67 1024.15 1023.56 1022.90 1022.19 1021.43 1020.65
1027.63 1027.84 1027.99 1028.11 1028.20 1028.30 1028.40 1028.53 1028.67 1028.84 1029.01 1029.18 1029.33 1029.45 1029.54 1029.59 1029.60 1029.57 1029.51 1029.42 1029.30 1029.15 1028.98 1028.79 1028.58 1028.35 1028.11 1027.86 1027.62 1027.37 1027.13 1026.89 1026.64 1026.38 1026.08 1025.74 1025.33 1024.86 1024.32 1023.72 1023.05 1022.35 1021.61
1027.08 1027.30 1027.48 1027.62 1027.75 1027.88 1028.03 1028.20 1028.40 1028.61 1028.82 1029.03 1029.23 1029.39 1029.52 1029.60 1029.64 1029.64 1029.60 1029.52 1029.42 1029.28 1029.12 1028.94 1028.75 1028.54 1028.33 1028.12 1027.91 1027.72 1027.53 1027.34 1027.14 1026.92 1026.67 1026.37 1026.01 1025.58 1025.08 1024.51 1023.89 1023.22 1022.52
1026.38 1026.62 1026.83 1027.02 1027.19 1027.38 1027.58 1027.80 1028.04 1028.29 1028.55 1028.80 1029.03 1029.23 1029.39 1029.51 1029.58 1029.60 1029.59 1029.53 1029.44 1029.32 1029.19 1029.03 1028.86 1028.69 1028.52 1028.35 1028.20 1028.06 1027.92 1027.79 1027.65 1027.48 1027.28 1027.02 1026.70 1026.31 1025.84 1025.31 1024.71 1024.07 1023.40
1025.53 1025.81 1026.06 1026.30 1026.54 1026.78 1027.03 1027.30 1027.58 1027.87 1028.16 1028.44 1028.70 1028.93 1029.12 1029.27 1029.37 1029.43 1029.44 1029.42 1029.36 1029.27 1029.17 1029.05 1028.92 1028.80 1028.68 1028.57 1028.47 1028.39 1028.32 1028.25 1028.16 1028.05 1027.89 1027.68 1027.40 1027.04 1026.60 1026.09 1025.52 1024.90 1024.24
1024.58 1024.90 1025.21 1025.50 1025.79 1026.08 1026.38 1026.68 1027.00 1027.32 1027.64 1027.94 1028.23 1028.48 1028.70 1028.88 1029.02 1029.11 1029.17 1029.19 1029.17 1029.13 1029.08 1029.01 1028.94 1028.87 1028.81 1028.77 1028.74 1028.72 1028.71 1028.70 1028.67 1028.61 1028.50 1028.33 1028.08 1027.76 1027.35 1026.87 1026.32 1025.71 1025.07
1023.58 1023.94 1024.29 1024.63 1024.96 1025.30 1025.63 1025.97 1026.32 1026.66 1026.99 1027.31 1027.62 1027.89 1028.14 1028.36 1028.54 1028.68 1028.79 1028.86 1028.91 1028.93 1028.93 1028.93 1028.93 1028.92 1028.93 1028.95 1028.98 1029.03 1029.08 1029.12 1029.14 1029.12 1029.06 1028.92 1028.71 1028.42 1028.05 1027.59 1027.07 1026.49 1025.87
1022.59 1022.98 1023.36 1023.74 1024.11 1024.47 1024.83 1025.19 1025.55 1025.90 1026.25 1026.58 1026.91 1027.21 1027.49 1027.75 1027.97 1028.17 1028.34 1028.48 1028.60 1028.69 1028.77 1028.84 1028.90 1028.96 1029.04 1029.12 1029.20 1029.30 1029.39 1029.47 1029.53 1029.55 1029.51 1029.41 1029.24 1028.98 1028.64 1028.23 1027.74 1027.20 1026.61
1021.66 1022.06 1022.46 1022.85 1023.24 1023.63 1024.00 1024.37 1024.74 1025.10 1025.45 1025.80 1026.15 1026.48 1026.79 1027.09 1027.38 1027.64 1027.87 1028.08 1028.27 1028.44 1028.59 1028.73 1028.86 1028.98 1029.11 1029.24 1029.37 1029.50 1029.62 1029.72 1029.80 1029.84 1029.83 1029.75 1029.61 1029.39 1029.09 1028.72 1028.29 1027.80 1027.27
1020.81 1021.20 1021.61 1022.01 1022.40 1022.79 1023.17 1023.55 1023.92 1024.28 1024.65 1025.01 1025.38 1025.74 1026.10 1026.44 1026.78 1027.10 1027.40 1027.69 1027.94 1028.18 1028.39 1028.59 1028.78 1028.95 1029.12 1029.28 1029.44 1029.58 1029.72 1029.83 1029.91 1029.96 1029.96 1029.90 1029.79 1029.60 1029.36 1029.04 1028.67 1028.26 1027.79
1020.04 1020.42 1020.82 1021.21 1021.60 1021.98 1022.36 1022.74 1023.11 1023.48 1023.86 1024.24 1024.63 1025.02 1025.42 1025.81 1026.20 1026.58 1026.94 1027.28 1027.59 1027.89 1028.16 1028.41 1028.63 1028.84 1029.03 1029.22 1029.38 1029.53 1029.66 1029.77 1029.85 1029.90 1029.90 1029.86 1029.77 1029.62 1029.43 1029.18 1028.89 1028.55 1028.17
1019.34 1019.70 1020.07 1020.45 1020.82 1021.20 1021.57 1021.95 1022.32 1022.70 1023.09 1023.50 1023.91 1024.33 1024.76 1025.19 1025.62 1026.04 1026.45 1026.84 1027.20 1027.53 1027.84 1028.13 1028.38 1028.62 1028.83 1029.02 1029.19 1029.34 1029.46 1029.56 1029.63 1029.68 1029.68 1029.65 1029.58 1029.48 1029.33 1029.15 1028.94 1028.69 1028.40
1018.66 1018.99 1019.34 1019.69 1020.06 1020.42 1020.79 1021.16 1021.54 1021.93 1022.33 1022.75 1023.18 1023.63 1024.09 1024.55 1025.01 1025.46 1025.90 1026.32 1026.71 1027.08 1027.41 1027.72 1028.00 1028.26 1028.48 1028.69 1028.86 1029.01 1029.14 1029.23 1029.30 1029.34 1029.35 1029.33 1029.28 1029.21 1029.12 1029.00 1028.85 1028.69 1028.50
Thickness
5672 5671 5668 5665 5663 5660 5657 5656 5654 5653 5651 5649 5648 5646 5643 5642 5640 5638 5635 5634 5633 5632 5631 5629 5626 5625 5623 5623 5622 5620 5618 5617 5615 5616 5619 5619 5619 5619 5620 5620 5622 5623 5625
5667 5665 5663 5660 5657 5655 5652 5651 5649 5647 5646 5644 5642 5640 5638 5636 5633 5631 5628 5627 5626 5624 5623 5622 5620 5619 5617 5616 5615 5614 5612 5611 5609 5608 5611 5612 5613 5613 5614 5614 5616 5618 5620
5661 5658 5656 5653 5651 5649 5647 5646 5644 5642 5640 5638 5635 5633 5631 5629 5627 5624 5622 5620 5619 5618 5617 5615 5613 5612 5610 5610 5609 5608 5607 5607 5605 5603 5604 5606 5607 5608 5608 5609 5611 5612 5614
5654 5652 5649 5647 5645 5644 5642 5640 5638 5636 5633 5631 5629 5627 5625 5622 5620 5618 5616 5614 5612 5611 5610 5609 5607 5606 5605 5604 5604 5603 5602 5600 5599 5598 5598 5599 5601 5602 5603 5603 5604 5606 5608
5648 5645 5643 5641 5639 5638 5636 5633 5631 5629 5627 5625 5623 5621 5618 5616 5613 5611 5608 5607 5604 5603 5602 5601 5600 5600 5599 5599 5599 5597 5596 5594 5593 5593 5593 5593 5594 5595 5596 5597 5598 5599 5602
5641 5638 5636 5634 5632 5630 5629 5627 5624 5622 5621 5619 5616 5613 5611 5609 5607 5604 5602 5600 5598 5596 5595 5594 5594 5593 5593 5593 5593 5592 5591 5589 5588 5587 5587 5587 5588 5589 5591 5592 5592 5592 5593
5634 5631 5629 5627 5625 5623 5621 5619 5617 5615 5613 5611 5609 5606 5603 5601 5599 5597 5595 5593 5591 5590 5589 5587 5588 5588 5587 5586 5586 5586 5586 5586 5585 5584 5583 5583 5583 5585 5585 5586 5587 5588 5588
5627 5624 5622 5620 5617 5615 5614 5611 5609 5608 5605 5603 5601 5599 5596 5594 5592 5590 5588 5586 5585 5584 5583 5582 5581 5580 5580 5580 5579 5579 5580 5580 5580 5580 5581 5581 5581 5581 5582 5583 5582 5584 5585
5620 5618 5615 5613 5610 5608 5606 5603 5602 5600 5597 5595 5594 5591 5588 5586 5585 5583 5582 5580 5579 5578 5578 5577 5576 5574 5575 5575 5574 5573 5574 5575 5576 5576 5575 5576 5576 5577 5577 5576 5576 5576 5577
5614 5611 5609 5606 5604 5601 5599 5597 5594 5592 5590 5588 5587 5584 5581 5578 5577 5576 5575 5573 5571 5571 5571 5570 5570 5569 5568 5568 5567 5567 5567 5568 5568 5568 5568 5569 5569 5571 5572 5572 5572 5570 5571
5607 5604 5602 5599 5597 5595 5592 5590 5587 5585 5583 5581 5579 5577 5574 5571 5569 5568 5566 5565 5563 5563 5563 5563 5562 5562 5562 5562 5562 5562 5562 5562 5562 5561 5561 5561 5562 5564 5565 5566 5567 5567 5567
5599 5597 5594 5592 5590 5588 5584 5582 5580 5577 5575 5572 5570 5567 5566 5564 5562 5560 5558 5557 5557 5555 5555 5555 5555 5556 5556 5556 5555 5556 5556 5556 5554 5553 5553 5554 5555 5557 5559 5560 5561 5562 5563
5592 5589 5587 5585 5582 5580 5577 5574 5571 5569 5565 5563 5561 5558 5557 5555 5553 5552 5551 5550 5549 5548 5548 5549 5549 5549 5549 5549 5549 5549 5548 5547 5547 5546 5546 5548 5550 5552 5553 5554 5555 5555 5557
5584 5581 5579 5576 5574 5571 5568 5566 5562 5559 5556 5554 5552 5550 5548 5547 5545 5543 5542 5541 5541 5541 5541 5542 5542 5543 5542 5542 5542 5542 5541 5541 5540 5540 5541 5542 5544 5546 5547 5548 5547 5547 5547
5577 5574 5571 5569 5565 5562 5559 5556 5554 5551 5549 5546 5544 5542 5540 5539 5538 5537 5535 5534 5533 5533 5533 5534 5534 5534 5534 5534 5534 5534 5534 5534 5534 5534 5534 5535 5536 5538 5539 5540 5541 5540 5539
5568 5566 5563 5560 5557 5554 5550 5547 5546 5544 5542 5540 5538 5536 5534 5533 5531 5530 5529 5528 5527 5527 5525 5525 5525 5525 5525 5525 5525 5525 5526 5526 5526 5527 5527 5527 5528 5529 5530 5531 5532 5532 5531
5560 5558 5556 5553 5549 5546 5543 5540 5537 5534 5533 5532 5530 5529 5527 5524 5524 5523 5522 5520 5520 5519 5517 5517 5517 5517 5517 5517 5517 5517 5517 5518 5518 5519 5519 5519 5520 5521 5521 5522 5523 5523 5524
5553 5551 5548 5545 5542 5539 5537 5534 5531 5528 5525 5523 5521 5520 5518 5517 5515 5515 5514 5512 5511 5511 5510 5509 5509 5509 5509 5510 5510 5510 5510 5510 5510 5510 5511 5511 5511 5512 5512 5513 5514 5514 5515
5546 5543 5540 5538 5535 5532 5529 5526 5523 5520 5518 5515 5513 5511 5510 5508 5507 5506 5505 5504 5503 5503 5502 5502 5502 5502 5501 5501 5502 5502 5502 5501 5501 5501 5502 5502 5502 5502 5503 5504 5505 5505 5506
5538 5536 5534 5530 5528 5524 5521 5518 5514 5512 5509 5507 5505 5503 5501 5499 5498 5497 5496 5496 5496 5495 5495 5494 5494 5494 5494 5493 5493 5493 5493 5493 5493 5493 5493 5493 5493 5494 5494 5495 5496 5496 5497
5529 5527 5526 5523 5520 5517 5513 5510 5507 5504 5502 5499 5497 5496 5494 5492 5490 5490 5489 5488 5488 5487 5487 5486 5486 5486 5485 5485 5485 5484 5484 5484 5484 5484 5484 5485 5485 5485 5486 5486 5487 5488 5489
5520 5518 5516 5514 5512 5508 5505 5502 5500 5497 5494 5492 5490 5488 5486 5483 5482 5481 5481 5481 5480 5480 5479 5478 5478 5478 5477 5477 5476 5476 5475 5475 5475 5476 5476 5476 5477 5477 5477 5477 5478 5478 5479
5511 5510 5508 5505 5503 5500 5497 5495 5492 5490 5487 5485 5482 5480 5477 5476 5475 5474 5473 5473 5472 5471 5470 5470 5469 5469 5469 5468 5468 5467 5467 5466 5466 5466 5466 5466 5467 5468 5468 5468 5468 5469 5469
5502 5501 5499 5497 5494 5492 5490 5487 5485 5483 5481 5478 5475 5473 5470 5468 5467 5466 5465 5463 5462 5462 5461 5460 5460 5460 5460 5459 5459 5458 5458 5457 5456 5456 5456 5456 5457 5458 5458 5459 5459 5460 5460
5493 5492 5490 5488 5486 5484 5481 5480 5477 5475 5473 5470 5468 5465 5463 5461 5459 5457 5456 5454 5453 5452 5452 5451 5451 5451 5451 5450 5449 5449 5448 5448 5447 5446 5446 5446 5447 5447 5448 5449 5449 5450 5450
5484 5482 5480 5478 5476 5475 5472 5471 5469 5467 5464 5462 5460 5457 5455 5453 5451 5449 5447 5446 5445 5444 5444 5443 5443 5442 5442 5441 5441 5440 5439 5438 5438 5437 5437 5437 5438 5437 5438 5438 5439 5440 5441